OSCAR 7 (AO-7) 1 07530U 74089B 12034.59309480 -.00000027 00000-0 10000-3 0 2976 2 07530 101.3985 37.0263 0011764 185.8886 174.2043 12.53587365703183 PHASE 3B (AO-10) 1 14129U 83058B 12033.35296073 -.00000415 00000-0 10000-3 0 9462 2 14129 27.2387 354.3087 6029644 132.7783 297.0265 2.05867200187423 UOSAT 2 (UO-11) 1 14781U 84021B 12034.20839719 .00000637 00000-0 90508-4 0 7782 2 14781 97.9747 94.8046 0009995 108.4122 251.8171 14.80299663499967 PACSAT (AO-16) 1 20439U 90005D 12034.86565325 .00000131 00000-0 64683-4 0 3880 2 20439 98.4142 342.1084 0010340 193.6766 166.4137 14.32014091150779 EYESAT-1 (AO-27) 1 22825U 93061C 12034.85140241 .00000125 00000-0 66171-4 0 234 2 22825 98.5602 339.8595 0008004 320.1085 39.9503 14.29427050957288 ITAMSAT (IO-26) 1 22826U 93061D 12034.87783715 .00000117 00000-0 62496-4 0 7713 2 22826 98.5545 340.2922 0008576 313.9435 46.1036 14.29697382957411 RADIO ROSTO (RS-15) 1 23439U 94085A 12033.77364782 -.00000039 00000-0 10000-3 0 4813 2 23439 64.8194 151.2894 0166398 241.6764 116.7288 11.27556655704421 JAS-2 (FO-29) 1 24278U 96046B 12034.37430729 -.00000048 00000-0 -12795-4 0 7689 2 24278 98.5753 152.7352 0350983 18.4819 342.8703 13.52976518763725 TECHSAT 1B (GO-32) 1 25397U 98043D 12034.34935544 .00000100 00000-0 62185-4 0 6946 2 25397 98.3495 19.7993 0001148 4.4524 355.6669 14.23255811704842 SEDSAT 1 (SO-33) 1 25509U 98061B 12034.20268094 .00000105 00000-0 98848-5 0 1581 2 25509 31.4325 17.5055 0352614 102.2863 261.7400 14.28663115693338 ISS (ZARYA) 1 25544U 98067A 12034.86863426 -.00001965 00000-0 -18124-4 0 9424 2 25544 51.6423 75.8121 0020339 2.5479 345.5829 15.58658818757067 PCSAT (NO-44) 1 26931U 01043C 12034.17425676 -.00000119 00000-0 -14070-4 0 9604 2 26931 67.0525 108.3018 0005938 277.8771 82.1665 14.29756264539947 SAUDISAT 1C (SO-50) 1 27607U 02058C 12034.40757372 .00000587 00000-0 10952-3 0 6797 2 27607 64.5592 344.8397 0085087 274.8321 84.3076 14.72198998490120 CUTE-1 (CO-55) 1 27844U 03031E 12034.01021214 .00000195 00000-0 11031-3 0 3014 2 27844 98.7048 44.3509 0009016 252.8323 107.1855 14.20955805445693 CUBESAT XI-IV (CO-57) 1 27848U 03031J 12034.06107704 .00000165 00000-0 97024-4 0 2509 2 27848 98.7140 43.6772 0008770 257.6541 102.3645 14.20716469445645 MOZHAYETS 4 (RS-22) 1 27939U 03042A 12034.69181737 .00000402 00000-0 85329-4 0 506 2 27939 97.8223 242.3227 0013152 336.2266 23.8332 14.63888690446205 ECHO (AO-51) 1 28375U 04025K 12033.87961406 .00000153 00000-0 58386-4 0 1867 2 28375 98.1277 5.5870 0084513 90.4326 270.6560 14.40889961399288 HAMSAT (VO-52) 1 28650U 05017B 12034.09292190 .00000826 00000-0 10814-3 0 158 2 28650 97.6151 71.5768 0027538 123.0684 237.3133 14.82653531364952 CUBESAT XI-V (CO-58) 1 28895U 05043F 12034.12215322 .00000411 00000-0 93941-4 0 898 2 28895 97.9351 266.1863 0016930 212.8249 147.1906 14.60468948333947 CUTE-1.7+APD II (CO-65) 1 32785U 08021C 12034.21641713 .00001296 00000-0 16693-3 0 2192 2 32785 97.8190 98.3775 0015531 140.1504 220.0876 14.82661280203761 DELFI-C3 (DO-64) 1 32789U 08021G 12034.15203807 .00003162 00000-0 37726-3 0 2191 2 32789 97.8301 100.2855 0015891 137.9912 222.2553 14.84874530203837 YUBILEINY (RS-30) 1 32953U 08025A 12034.87439243 .00000010 00000-0 00000+0 0 4891 2 32953 82.5017 18.6546 0017457 240.2754 119.6590 12.43020594167875 PRISM 1 33493U 09002B 12034.76898977 .00002165 00000-0 27155-3 0 3906 2 33493 98.1496 172.3709 0019316 16.0125 344.1695 14.83147984163826 STARS 1 33498U 09002G 12034.80681390 .00000879 00000-0 14627-3 0 6357 2 33498 98.0974 151.3589 0013559 137.0618 223.1639 14.72524795162749 KKS-1 1 33499U 09002H 12034.26206065 .00000541 00000-0 95263-4 0 6497 2 33499 98.1001 149.7238 0010712 137.9056 222.2983 14.71502028162585 SWISSCUBE 1 35932U 09051B 12034.29126961 .00005301 00000-0 12986-2 0 3916 2 35932 98.3371 137.9353 0008297 157.9053 202.2291 14.52842643125276 BEESAT 1 35933U 09051C 12034.79642313 .00007907 00000-0 19109-2 0 5589 2 35933 98.3375 138.8175 0002725 161.3965 198.6846 14.53348882125398 ITUPSAT1 1 35935U 09051E 12034.37543396 .00001955 00000-0 48744-3 0 8090 2 35935 98.3407 138.5208 0010074 155.6868 204.4777 14.52717462125273 HOPE-1 (HO-68) 1 36122U 09072B 12034.68224572 -.00000044 00000-0 00000+0 0 1662 2 36122 100.3817 96.6465 0007729 58.5953 301.5920 13.16292831102696 JUGNU 1 37839U 11058B 12034.48038232 .00000620 00000-0 19019-3 0 807 2 37839 19.9613 94.2714 0018549 177.4385 182.6063 14.12022023 16189 SRMSAT 1 37841U 11058D 12034.21038707 .00000264 00000-0 00000+0 0 796 2 37841 19.9729 98.1368 0012250 151.6526 208.4546 14.10112631 16111 RAX-2 1 37853U 11061D 12034.86954635 .00005922 00000-0 48216-3 0 871 2 37853 101.7118 14.0423 0251507 13.4055 347.3665 14.78700145 14533 AUBIESAT-1 (AO-71) 1 37854U 11061E 12034.85490349 .00007030 00000-0 56310-3 0 896 2 37854 101.7132 14.1048 0252526 13.0752 347.6847 14.78974832 14526 M-CUBED & EXP-1 PRIME 1 37855U 11061F 12034.18143905 .00006461 00000-0 51809-3 0 880 2 37855 101.7168 13.1221 0253300 14.9895 345.8644 14.78886934 14426 CHIBIS-M (RS-39) 1 38051U 11062C 12034.62731332 .00007636 00000-0 34270-3 0 299 2 38051 51.6487 79.8964 0011251 281.2566 189.9078 15.22076105 1465